Time,TemperatureF,DewpointF,PressureIn,WindDirection,WindDirectionDegrees,WindSpeedMPH,WindSpeedGustMPH,Humidity,HourlyPrecipIn,Conditions,Clouds,dailyrainin,SoftwareType,DateUTC
2013-02-24 00:01:00,19.0,16.0,29.86,SSE,147,2.0,5.0,87,0.00,,,0.05,,2013-02-24 07:01:00,
2013-02-24 00:11:00,19.0,16.0,29.86,SSE,147,2.0,5.0,87,0.00,,,0.05,,2013-02-24 07:11:00,
2013-02-24 00:21:00,18.0,15.0,29.86,SSW,192,0.0,1.0,87,0.00,,,0.05,,2013-02-24 07:21:00,
2013-02-24 00:31:00,18.0,15.0,29.86,SSW,206,4.0,9.0,86,0.00,,,0.05,,2013-02-24 07:31:00,
2013-02-24 00:41:00,18.0,15.0,29.86,SSW,206,4.0,9.0,86,0.00,,,0.05,,2013-02-24 07:41:00,
2013-02-24 00:51:00,17.0,13.0,29.87,SSW,202,7.0,11.0,84,0.00,,,0.05,,2013-02-24 07:51:00,
2013-02-24 01:01:00,16.0,12.0,29.86,SW,226,4.0,10.0,83,0.00,,,0.05,,2013-02-24 08:01:00,
2013-02-24 01:11:00,16.0,12.0,29.86,SW,226,4.0,10.0,83,0.00,,,0.05,,2013-02-24 08:11:00,
2013-02-24 01:22:00,16.0,13.0,29.86,NW,309,0.0,5.0,86,0.00,,,0.05,,2013-02-24 08:22:00,
2013-02-24 01:31:00,16.0,13.0,29.88,NNW,328,1.0,9.0,89,0.00,,,0.05,,2013-02-24 08:31:00,
2013-02-24 01:41:00,16.0,13.0,29.88,NNW,328,1.0,9.0,89,0.00,,,0.05,,2013-02-24 08:41:00,
2013-02-24 01:53:00,16.0,13.0,29.88,North,360,3.0,8.0,89,0.00,,,0.05,,2013-02-24 08:53:00,
2013-02-24 02:01:00,16.0,13.0,29.88,North,9,0.0,4.0,87,0.00,,,0.05,,2013-02-24 09:01:00,
2013-02-24 02:11:00,16.0,13.0,29.88,North,9,0.0,4.0,87,0.00,,,0.05,,2013-02-24 09:11:00,
2013-02-24 02:21:00,15.0,12.0,29.88,North,9,0.0,0.0,88,0.00,,,0.05,,2013-02-24 09:21:00,
2013-02-24 02:31:00,15.0,12.0,29.88,NNW,338,3.0,7.0,88,0.00,,,0.05,,2013-02-24 09:31:00,
2013-02-24 02:41:00,15.0,12.0,29.88,NNW,338,3.0,7.0,88,0.00,,,0.05,,2013-02-24 09:41:00,
2013-02-24 02:51:00,15.0,12.0,29.88,WNW,296,1.0,5.0,88,0.00,,,0.05,,2013-02-24 09:51:00,
2013-02-24 03:01:00,14.0,10.0,29.88,North,360,2.0,5.0,84,0.00,,,0.05,,2013-02-24 10:01:00,
2013-02-24 03:11:00,14.0,10.0,29.88,North,360,2.0,5.0,84,0.00,,,0.05,,2013-02-24 10:11:00,
2013-02-24 03:21:00,14.0,10.0,29.87,West,262,0.0,6.0,82,0.00,,,0.05,,2013-02-24 10:21:00,
2013-02-24 03:31:00,13.0,9.0,29.88,West,262,0.0,0.0,82,0.00,,,0.05,,2013-02-24 10:31:00,
2013-02-24 03:41:00,13.0,9.0,29.88,West,262,0.0,0.0,82,0.00,,,0.05,,2013-02-24 10:41:00,
2013-02-24 03:51:00,13.0,9.0,29.88,West,262,0.0,0.0,84,0.00,,,0.05,,2013-02-24 10:51:00,
2013-02-24 04:01:00,13.0,9.0,29.88,West,262,0.0,0.0,83,0.00,,,0.05,,2013-02-24 11:01:00,
2013-02-24 04:11:00,13.0,9.0,29.88,West,262,0.0,0.0,83,0.00,,,0.05,,2013-02-24 11:11:00,
2013-02-24 04:21:00,12.0,8.0,29.88,SW,231,0.0,2.0,82,0.00,,,0.05,,2013-02-24 11:21:00,
2013-02-24 04:32:00,11.0,6.0,29.88,SW,231,0.0,0.0,81,0.00,,,0.05,,2013-02-24 11:32:00,
2013-02-24 04:41:00,11.0,6.0,29.88,SW,231,0.0,0.0,81,0.00,,,0.05,,2013-02-24 11:41:00,
2013-02-24 04:52:00,10.0,6.0,29.88,SW,231,0.0,0.0,82,0.00,,,0.05,,2013-02-24 11:52:00,
2013-02-24 05:01:00,10.0,6.0,29.88,SW,215,1.0,4.0,82,0.00,,,0.05,,2013-02-24 12:01:00,
2013-02-24 05:11:00,10.0,6.0,29.88,SW,215,1.0,4.0,82,0.00,,,0.05,,2013-02-24 12:11:00,
2013-02-24 05:21:00,9.0,5.0,29.88,SSW,204,0.0,4.0,85,0.00,,,0.05,,2013-02-24 12:21:00,
2013-02-24 05:32:00,9.0,5.0,29.88,SSW,204,0.0,0.0,84,0.00,,,0.05,,2013-02-24 12:32:00,
2013-02-24 05:45:00,9.0,5.0,29.88,SSW,204,0.0,0.0,84,0.00,,,0.05,,2013-02-24 12:45:00,
2013-02-24 05:55:00,8.0,4.0,29.88,SSW,204,0.0,0.0,82,0.00,,,0.05,,2013-02-24 12:55:00,
2013-02-24 06:06:00,7.0,2.0,29.88,SSW,205,0.0,0.0,81,0.00,,,0.05,,2013-02-24 13:06:00,
2013-02-24 06:14:00,7.0,2.0,29.88,SSW,205,0.0,0.0,81,0.00,,,0.05,,2013-02-24 13:14:00,
2013-02-24 06:23:00,6.0,1.0,29.88,SSW,205,1.0,5.0,80,0.00,,,0.05,,2013-02-24 13:23:00,
2013-02-24 06:33:00,5.0,1.0,29.88,SW,220,3.0,6.0,82,0.00,,,0.05,,2013-02-24 13:33:00,
2013-02-24 06:42:00,5.0,1.0,29.88,SW,220,3.0,6.0,82,0.00,,,0.05,,2013-02-24 13:42:00,
2013-02-24 07:02:00,5.0,2.0,29.88,SW,215,4.0,7.0,87,0.00,,,0.05,,2013-02-24 14:02:00,
2013-02-24 07:12:00,5.0,2.0,29.88,SW,215,4.0,7.0,87,0.00,,,0.05,,2013-02-24 14:12:00,
2013-02-24 07:23:00,5.0,2.0,29.89,SSW,205,3.0,6.0,86,0.00,,,0.05,,2013-02-24 14:23:00,
2013-02-24 07:32:00,4.0,1.0,29.89,SSW,212,2.0,6.0,86,0.00,,,0.05,,2013-02-24 14:32:00,
2013-02-24 07:43:00,4.0,1.0,29.89,SSW,212,2.0,6.0,86,0.00,,,0.05,,2013-02-24 14:43:00,
2013-02-24 07:53:00,5.0,2.0,29.89,SSW,198,2.0,5.0,87,0.00,,,0.05,,2013-02-24 14:53:00,
2013-02-24 08:01:00,6.0,3.0,29.89,SSE,167,2.0,6.0,89,0.00,,,0.05,,2013-02-24 15:01:00,
2013-02-24 08:22:00,9.0,6.0,29.89,SSE,167,0.0,6.0,88,0.00,,,0.05,,2013-02-24 15:22:00,
2013-02-24 08:31:00,11.0,7.0,29.89,SSE,166,3.0,6.0,83,0.00,,,0.05,,2013-02-24 15:31:00,
2013-02-24 08:41:00,11.0,7.0,29.89,SSE,166,3.0,6.0,83,0.00,,,0.05,,2013-02-24 15:41:00,
2013-02-24 08:52:00,11.0,7.0,29.89,SSE,166,3.0,6.0,83,0.00,,,0.05,,2013-02-24 15:52:00,
2013-02-24 09:01:00,14.0,9.0,29.90,NNW,327,5.0,8.0,80,0.00,,,0.05,,2013-02-24 16:01:00,
2013-02-24 09:21:00,15.0,9.0,29.90,WNW,300,0.0,5.0,78,0.00,,,0.05,,2013-02-24 16:21:00,
2013-02-24 09:31:00,15.0,10.0,29.90,NNW,340,3.0,9.0,79,0.00,,,0.05,,2013-02-24 16:31:00,
2013-02-24 09:41:00,15.0,10.0,29.90,NNW,340,3.0,9.0,79,0.00,,,0.05,,2013-02-24 16:41:00,
2013-02-24 09:52:00,15.0,10.0,29.90,NNW,340,3.0,9.0,79,0.00,,,0.05,,2013-02-24 16:52:00,
2013-02-24 10:01:00,17.0,12.0,29.91,North,355,3.0,10.0,81,0.00,,,0.05,,2013-02-24 17:01:00,
2013-02-24 10:11:00,17.0,12.0,29.91,North,355,3.0,10.0,81,0.00,,,0.05,,2013-02-24 17:11:00,
2013-02-24 10:21:00,19.0,14.0,29.91,NE,34,5.0,8.0,79,0.00,,,0.05,,2013-02-24 17:21:00,
2013-02-24 10:32:00,19.0,13.0,29.91,NNW,346,3.0,10.0,76,0.00,,,0.05,,2013-02-24 17:32:00,
2013-02-24 10:41:00,19.0,13.0,29.91,NNW,346,3.0,10.0,76,0.00,,,0.05,,2013-02-24 17:41:00,
2013-02-24 10:52:00,19.0,12.0,29.91,North,5,2.0,7.0,74,0.00,,,0.05,,2013-02-24 17:52:00,
2013-02-24 11:01:00,18.0,11.0,29.91,North,5,4.0,7.0,74,0.00,,,0.05,,2013-02-24 18:01:00,
2013-02-24 11:11:00,18.0,11.0,29.91,North,5,4.0,7.0,74,0.00,,,0.05,,2013-02-24 18:11:00,
2013-02-24 11:21:00,19.0,12.0,29.91,NW,323,3.0,9.0,73,0.00,,,0.05,,2013-02-24 18:21:00,
2013-02-24 11:31:00,18.0,11.0,29.91,West,278,2.0,8.0,74,0.00,,,0.05,,2013-02-24 18:31:00,
2013-02-24 11:41:00,18.0,11.0,29.91,West,278,2.0,8.0,74,0.00,,,0.05,,2013-02-24 18:41:00,
2013-02-24 11:52:00,18.0,11.0,29.91,NNW,343,4.0,8.0,74,0.00,,,0.05,,2013-02-24 18:52:00,
2013-02-24 12:01:00,18.0,11.0,29.91,NNE,19,3.0,11.0,75,0.00,,,0.05,,2013-02-24 19:01:00,
2013-02-24 12:11:00,18.0,11.0,29.91,NNE,19,3.0,11.0,75,0.00,,,0.05,,2013-02-24 19:11:00,
2013-02-24 12:22:00,20.0,13.0,29.91,NNE,22,4.0,8.0,75,0.00,,,0.05,,2013-02-24 19:22:00,
2013-02-24 12:31:00,21.0,13.0,29.91,North,355,1.0,8.0,72,0.01,,,0.06,,2013-02-24 19:31:00,
2013-02-24 12:41:00,21.0,13.0,29.91,North,355,1.0,8.0,72,0.01,,,0.06,,2013-02-24 19:41:00,
2013-02-24 12:52:00,21.0,13.0,29.90,NW,310,5.0,8.0,72,0.01,,,0.06,,2013-02-24 19:52:00,
2013-02-24 13:01:00,20.0,12.0,29.90,North,9,3.0,10.0,72,0.01,,,0.06,,2013-02-24 20:01:00,
2013-02-24 13:11:00,20.0,12.0,29.90,North,9,3.0,10.0,72,0.01,,,0.06,,2013-02-24 20:11:00,
2013-02-24 13:21:00,20.0,13.0,29.90,North,360,6.0,10.0,74,0.00,,,0.05,,2013-02-24 20:21:00,
2013-02-24 13:31:00,20.0,13.0,29.91,North,355,8.0,11.0,74,0.00,,,0.05,,2013-02-24 20:31:00,
2013-02-24 13:41:00,20.0,13.0,29.91,North,355,8.0,11.0,74,0.00,,,0.05,,2013-02-24 20:41:00,
2013-02-24 13:52:00,20.0,13.0,29.91,North,360,5.0,13.0,75,0.00,,,0.05,,2013-02-24 20:52:00,
2013-02-24 14:01:00,20.0,13.0,29.91,North,355,7.0,15.0,75,0.00,,,0.05,,2013-02-24 21:01:00,
2013-02-24 14:11:00,20.0,13.0,29.91,North,355,7.0,15.0,75,0.00,,,0.05,,2013-02-24 21:11:00,
2013-02-24 14:21:00,19.0,13.0,29.92,North,360,5.0,12.0,77,0.00,,,0.05,,2013-02-24 21:21:00,
2013-02-24 14:31:00,20.0,14.0,29.92,North,351,6.0,12.0,76,0.00,,,0.05,,2013-02-24 21:31:00,
2013-02-24 14:41:00,20.0,14.0,29.92,North,351,6.0,12.0,76,0.00,,,0.05,,2013-02-24 21:41:00,
2013-02-24 14:52:00,19.0,13.0,29.93,North,350,5.0,9.0,77,0.00,,,0.05,,2013-02-24 21:52:00,
2013-02-24 15:01:00,20.0,14.0,29.93,North,355,3.0,9.0,76,0.00,,,0.05,,2013-02-24 22:01:00,
2013-02-24 15:11:00,20.0,14.0,29.93,North,355,3.0,9.0,76,0.00,,,0.05,,2013-02-24 22:11:00,
2013-02-24 15:21:00,20.0,14.0,29.93,NNW,343,5.0,10.0,76,0.00,,,0.05,,2013-02-24 22:21:00,
2013-02-24 15:31:00,19.0,13.0,29.93,NNW,333,3.0,8.0,76,0.00,,,0.05,,2013-02-24 22:31:00,
2013-02-24 15:41:00,19.0,13.0,29.93,NNW,333,3.0,8.0,76,0.00,,,0.05,,2013-02-24 22:41:00,
2013-02-24 15:52:00,19.0,12.0,29.94,NNW,333,3.0,7.0,74,0.00,,,0.05,,2013-02-24 22:52:00,
2013-02-24 16:01:00,19.0,12.0,29.95,NNW,346,4.0,9.0,74,0.00,,,0.05,,2013-02-24 23:01:00,
2013-02-24 16:11:00,19.0,12.0,29.95,NNW,346,4.0,9.0,74,0.00,,,0.05,,2013-02-24 23:11:00,
2013-02-24 16:21:00,19.0,12.0,29.96,NNW,342,3.0,9.0,75,0.00,,,0.02,,2013-02-24 23:21:00,
2013-02-24 16:31:00,20.0,13.0,29.96,North,351,3.0,8.0,75,0.00,,,0.02,,2013-02-24 23:31:00,
2013-02-24 16:41:00,20.0,13.0,29.96,North,351,3.0,8.0,75,0.00,,,0.02,,2013-02-24 23:41:00,
2013-02-24 16:52:00,20.0,14.0,29.97,NW,317,1.0,6.0,76,0.00,,,0.02,,2013-02-24 23:52:00,
2013-02-24 17:01:00,19.0,13.0,29.98,North,5,2.0,7.0,78,0.00,,,0.02,,2013-02-25 00:01:00,
2013-02-24 17:11:00,19.0,13.0,29.98,North,5,2.0,7.0,78,0.00,,,0.02,,2013-02-25 00:11:00,
2013-02-24 17:21:00,19.0,14.0,29.98,NNE,13,2.0,6.0,79,0.00,,,0.01,,2013-02-25 00:21:00,
2013-02-24 17:31:00,19.0,14.0,29.99,NNE,20,1.0,5.0,81,0.00,,,0.01,,2013-02-25 00:31:00,
2013-02-24 17:41:00,19.0,14.0,29.99,NNE,20,1.0,5.0,81,0.00,,,0.01,,2013-02-25 00:41:00,
2013-02-24 17:52:00,18.0,14.0,30.00,NNE,17,0.0,0.0,83,0.00,,,0.01,,2013-02-25 00:52:00,
2013-02-24 18:01:00,18.0,14.0,30.00,ENE,78,1.0,3.0,83,0.00,,,0.01,,2013-02-25 01:01:00,
2013-02-24 18:11:00,18.0,14.0,30.00,ENE,78,1.0,3.0,83,0.00,,,0.01,,2013-02-25 01:11:00,
2013-02-24 18:21:00,17.0,14.0,30.01,ESE,111,2.0,5.0,86,0.00,,,0.01,,2013-02-25 01:21:00,
2013-02-24 18:31:00,17.0,14.0,30.02,ESE,115,0.0,3.0,86,0.00,,,0.01,,2013-02-25 01:31:00,
2013-02-24 18:42:00,17.0,14.0,30.02,ESE,115,0.0,3.0,86,0.00,,,0.01,,2013-02-25 01:42:00,
2013-02-24 18:52:00,16.0,13.0,30.02,ESE,115,0.0,0.0,87,0.00,,,0.01,,2013-02-25 01:52:00,
2013-02-24 19:01:00,16.0,13.0,30.03,ESE,115,0.0,0.0,87,0.00,,,0.01,,2013-02-25 02:01:00,
2013-02-24 19:11:00,16.0,13.0,30.03,ESE,115,0.0,0.0,87,0.00,,,0.01,,2013-02-25 02:11:00,
2013-02-24 19:21:00,16.0,13.0,30.03,ESE,115,0.0,0.0,87,0.00,,,0.01,,2013-02-25 02:21:00,
2013-02-24 19:31:00,16.0,13.0,30.03,ESE,115,0.0,0.0,87,0.00,,,0.01,,2013-02-25 02:31:00,
2013-02-24 19:41:00,16.0,13.0,30.03,ESE,115,0.0,0.0,87,0.00,,,0.01,,2013-02-25 02:41:00,
2013-02-24 19:52:00,16.0,13.0,30.04,SE,126,0.0,0.0,88,0.00,,,0.01,,2013-02-25 02:52:00,
2013-02-24 20:01:00,16.0,13.0,30.04,SE,127,0.0,0.0,88,0.00,,,0.01,,2013-02-25 03:01:00,
2013-02-24 20:11:00,16.0,13.0,30.04,SE,127,0.0,0.0,88,0.00,,,0.01,,2013-02-25 03:11:00,
2013-02-24 20:21:00,16.0,13.0,30.05,SE,130,0.0,0.0,89,0.00,,,0.01,,2013-02-25 03:21:00,
2013-02-24 20:31:00,16.0,13.0,30.05,SSE,147,0.0,0.0,89,0.00,,,0.01,,2013-02-25 03:31:00,
2013-02-24 20:41:00,16.0,13.0,30.05,SSE,147,0.0,0.0,89,0.00,,,0.01,,2013-02-25 03:41:00,
2013-02-24 20:52:00,16.0,13.0,30.06,South,175,0.0,3.0,89,0.00,,,0.01,,2013-02-25 03:52:00,
2013-02-24 21:01:00,16.0,13.0,30.06,South,174,0.0,0.0,89,0.00,,,0.01,,2013-02-25 04:01:00,
2013-02-24 21:11:00,16.0,13.0,30.06,South,174,0.0,0.0,89,0.00,,,0.01,,2013-02-25 04:11:00,
2013-02-24 21:21:00,16.0,13.0,30.06,South,174,0.0,0.0,89,0.00,,,0.01,,2013-02-25 04:21:00,
2013-02-24 21:31:00,16.0,13.0,30.06,South,174,0.0,0.0,89,0.00,,,0.01,,2013-02-25 04:31:00,
2013-02-24 21:41:00,16.0,13.0,30.06,South,174,0.0,0.0,89,0.00,,,0.01,,2013-02-25 04:41:00,
2013-02-24 21:52:00,16.0,13.0,30.06,South,174,0.0,0.0,89,0.00,,,0.01,,2013-02-25 04:52:00,
2013-02-24 22:01:00,16.0,13.0,30.06,South,174,0.0,0.0,89,0.00,,,0.01,,2013-02-25 05:01:00,
2013-02-24 22:11:00,16.0,13.0,30.06,South,174,0.0,0.0,89,0.00,,,0.01,,2013-02-25 05:11:00,
2013-02-24 22:22:00,16.0,13.0,30.07,South,174,0.0,0.0,89,0.00,,,0.01,,2013-02-25 05:22:00,
2013-02-24 22:31:00,16.0,13.0,30.07,South,174,0.0,0.0,89,0.00,,,0.01,,2013-02-25 05:31:00,
2013-02-24 22:41:00,16.0,13.0,30.07,South,174,0.0,0.0,89,0.00,,,0.01,,2013-02-25 05:41:00,
2013-02-24 22:52:00,16.0,13.0,30.07,South,174,0.0,0.0,89,0.00,,,0.01,,2013-02-25 05:52:00,
2013-02-24 23:02:00,16.0,13.0,30.07,South,178,0.0,0.0,89,0.00,,,0.01,,2013-02-25 06:02:00,
2013-02-24 23:11:00,16.0,13.0,30.07,South,178,0.0,0.0,89,0.00,,,0.01,,2013-02-25 06:11:00,
2013-02-24 23:21:00,16.0,14.0,30.07,South,177,0.0,0.0,90,0.00,,,0.01,,2013-02-25 06:21:00,
2013-02-24 23:31:00,16.0,13.0,30.08,South,177,0.0,0.0,89,0.00,,,0.01,,2013-02-25 06:31:00,
2013-02-24 23:41:00,16.0,13.0,30.08,South,177,0.0,0.0,89,0.00,,,0.01,,2013-02-25 06:41:00,
2013-02-24 23:51:00,16.0,13.0,30.08,South,177,0.0,0.0,89,0.00,,,0.01,,2013-02-25 06:51:00,